STARLINK-35772 (66976 NORAD) Tracking and Keplerian Element Data

This shows tracking and keplerian element data for the satellite.

Feedback or suggestion? Click here.




ElementValue
Catalog66976
NameSTARLINK-35772
Epoch Orbit303
Epoch Day354.25003472
Epoch Year2025
RAAN121.4359
Inclination43.0006
Eccentricity0.0001369
Argument of Perigee261.8109
Mean Anonmoly354.404
Mean Motion15.69209076
Decay Rate-0.02458266
L11 66976U 25288T 25354.25003472 -.02458266 00000+0 -23414-1 0 9990
L22 66976 43.0006 121.4359 0001369 261.8109 354.4040 15.69209076 3031



Live tracking and technical data element details for STARLINK-35772 (NORAD 66976). STARLINK-35772 can be tracked NOW for your location showing map with azimuth and elevation plus other details from your city location.







IsCatalogInMostPopularTable: catalog: 66976, numindb: 8
Update: records affected: 1



GetName: 66976 STARLINK-35772

Hit Count: updated at: Fri, 16 Jan 2026 09:51:41 GMT